Location: Unspecified
(37.6100°N, 2.7800°W)
Time: 17:40:54
(UTC+00:00)

Envisat - Visible Passes

Search period start: 24 May 2018 00:00
Search period end: 03 June 2018 00:00
Orbit: 764 x 766 km, 98.2° (Epoch: 24 May)

Date Brightness Start Highest point End Pass type
(mag) Time Alt. Az. Time Alt. Az. Time Alt. Az.
24 May 4.9 20:21:02 10° SSW 20:25:24 29° W 20:29:49 10° NW visible
25 May 3.4 19:43:31 10° S 19:48:33 68° WSW 19:53:38 10° NNW visible
26 May 5.6 20:48:05 10° SW 20:51:11 16° W 20:54:18 10° NW visible
27 May 4.5 20:09:31 10° SSW 20:14:11 37° W 20:18:54 10° NNW visible
29 May 5.4 20:36:10 10° SW 20:39:56 21° W 20:43:42 10° NW visible
30 May 4.0 19:58:07 10° S 20:03:00 48° W 20:07:55 10° NNW visible
31 May 5.8 21:04:25 10° WSW 21:05:46 11° W 21:07:08 10° WNW visible
01 Jun 5.0 20:24:28 10° SSW 20:28:42 26° W 20:32:57 10° NW visible
